This is the latest recevied weather packets stored in our database for station/object KE6LRO. If no packets are shown the sender has not sent any weather packets the latest 10 day(s).
| Time | Temp. | Humidity | Pressure | Rain* | Wind** | Luminosity | Snow |
|---|---|---|---|---|---|---|---|
| 1777943685 | 17.22° C | 39% | 1014.9 hPa | 0 mm | - | 95 W/m² | - |
| 1777943382 | 17.22° C | 39% | 1014.7 hPa | 0 mm | - | 109 W/m² | - |
| 1777943078 | 17.78° C | 39% | 1014.8 hPa | 0 mm | - | 110 W/m² | - |
| 1777942774 | 17.78° C | 39% | 1014.8 hPa | 0 mm | - | 122 W/m² | - |
| 1777942471 | 17.78° C | 40% | 1014.7 hPa | 0 mm | - | 123 W/m² | - |
| 1777942169 | 17.78° C | 39% | 1014.7 hPa | 0 mm | - | 70 W/m² | - |
| 1777941865 | 18.33° C | 41% | 1014.7 hPa | 0 mm | - | 173 W/m² | - |
| 1777941562 | 17.22° C | 41% | 1014.7 hPa | 0 mm | - | 208 W/m² | - |
| 1777941259 | 17.78° C | 40% | 1014.7 hPa | 0 mm | - | 103 W/m² | - |
| 1777940955 | 17.78° C | 38% | 1014.8 hPa | 0 mm | - | 124 W/m² | - |
| 1777940652 | 18.33° C | 39% | 1014.7 hPa | 0 mm | - | 133 W/m² | - |
| 1777940350 | 18.33° C | 38% | 1014.7 hPa | 0 mm | - | 175 W/m² | - |
| 1777940047 | 18.89° C | 39% | 1014.6 hPa | 0 mm | - | 196 W/m² | - |
| 1777939744 | 18.89° C | 36% | 1014.8 hPa | 0 mm | - | 298 W/m² | - |
| 1777939442 | 18.33° C | 37% | 1014.6 hPa | 0 mm | - | 271 W/m² | - |
| 1777939138 | 18.33° C | 39% | 1014.6 hPa | 0 mm | - | 193 W/m² | - |
| 1777938835 | 18.89° C | 39% | 1014.4 hPa | 0 mm | - | 189 W/m² | - |
| 1777938531 | 19.44° C | 36% | 1014.5 hPa | 0 mm | - | 190 W/m² | - |
| 1777938230 | 18.89° C | 36% | 1014.4 hPa | 0 mm | - | 277 W/m² | - |
| 1777937926 | 19.44° C | 37% | 1014.4 hPa | 0 mm | - | 240 W/m² | - |
| 1777937621 | 20° C | 36% | 1014.1 hPa | 0 mm | - | 270 W/m² | - |
| 1777937319 | 20° C | 40% | 1014.1 hPa | 0 mm | - | 310 W/m² | - |
| 1777937016 | 20° C | 37% | 1014.3 hPa | 0 mm | - | 375 W/m² | - |
| 1777936712 | 19.44° C | 37% | 1014.3 hPa | 0 mm | - | 333 W/m² | - |
| 1777936409 | 19.44° C | 36% | 1014.4 hPa | 0 mm | - | 205 W/m² | - |
* Rain latest hour (hover to see other rain measurements)
** Current wind speed in m/s (hover to see current wind gust speed)